Regional Weather Roundup
Issued by NWS

Home | Current Version | Previous Version | Text Only | Print | Product List | Glossary Off
Versions: 1 2 3 4 5 6 7 8 9 10 11 12 13 14 15 16 17 18 19 20 21 22 23 24 25 26 27 28 29 30 31 32 33 34 35 36 37 38 39 40 41 42 43 44 45 46 47 48 49 50

000
ASUS45 KCYS 220910
RWRWY

WYOMING REGIONAL WEATHER ROUNDUP
NATIONAL WEATHER SERVICE CHEYENNE WY
200 AM MST THU FEB 22 2018

NOTE:  "FAIR" INDICATES FEW OR NO CLOUDS BELOW 12,000 FEET
WITH NO SIGNIFICANT WEATHER AND/OR OBSTRUCTIONS TO VISIBILITY.

WYZ001-221000-
YELLOWSTONE NATIONAL PARK

CITY           SKY/WX    TMP DP  RH WIND       PRES   REMARKS
LK YELLOWSTONE   N/A    -13 -17  82 NW3       29.92F
W YELLOWSTONE  NOT AVBL

$$
WYZ002>013-054>058-071-098>099-221000-
NORTHERN WYOMING

CITY           SKY/WX    TMP DP  RH WIND       PRES   REMARKS
JACKSON        CLOUDY     5  -1  76 NE5       29.99F WCI  -4
CODY           FAIR       5  -3  69 N5        30.01S WCI  -4
GREYBULL       FAIR     -18 -22  82 CALM      30.10S
WORLAND        FAIR      -7 -10  87 CALM      30.08S
SHERIDAN       FAIR     -11 -16  78 CALM      30.06F
BUFFALO        FAIR      13  -5  44 NW5       30.01R WCI   5
GILLETTE       FAIR       4  -5  66 SE13      30.05R WCI -13
HULETT         FAIR      10   0  61 MISG      30.06F
NEWCASTLE      FAIR       5   0  78 CALM      30.11F

$$
WYZ014>020-022>026-101>103-221000-
CENTRAL WYOMING

CITY           SKY/WX    TMP DP  RH WIND       PRES   REMARKS
BIG PINEY      FAIR     -12 -18  74 CALM      30.00S
PINEDALE       FAIR     -17 -22  76 NW6       30.00S WCI -31
DUBOIS           N/A    N/A N/A N/A MISG        N/A
LANDER         FAIR      -6  -9  86 SE7       30.01S WCI -20
RIVERTON       FAIR      -7 -13  75 CALM      30.03S
CASPER         FAIR       6  -1  73 SW16      30.02F WCI -12
DOUGLAS        FAIR      -6 -10  83 W6        30.06F WCI -19

$$
WYZ021-027>030-104>119-221000-
SOUTHERN WYOMING

CITY           SKY/WX    TMP DP  RH WIND       PRES   REMARKS
EVANSTON       CLOUDY     0  -5  79 E10       29.94S WCI -16
FORT BRIDGER   FLURRIES  -8 -11  84 W6        30.00  WCI -21
ROCK SPRINGS   CLOUDY     2  -3  80 NE3       29.98F
DIXON          CLOUDY     3  -2  78 CALM      30.02S
RAWLINS        FAIR      -5  -9  83 N5        29.98F WCI -16
SARATOGA       FAIR       0  -2  92 CALM      29.97F
LARAMIE        FAIR      -2  -4  91 SW6       29.95S WCI -14
CHEYENNE       FAIR       8   5  87 CALM      30.00F
TORRINGTON     FAIR      10   7  87 E9        30.11F WCI  -3
PINE BLUFFS    FAIR       1  -2  85 MISG      30.08F

$$



USA.gov is the U.S. government's official web portal to all federal, state and local government web resources and services.